Location: Unspecified
(0.0000°N, 0.0000°E)
Time: 15:22:16
(UTC+02:00)

BREEZE-M DEB (TANK) - Visible Passes

Search period start: 23 August 2014 00:00
Search period end: 02 September 2014 00:00
Orbit: 338 x 16417 km, 49.5° (Epoch: 22 August)

Date Brightness Start Highest point End Pass type
(mag) Time Alt. Az. Time Alt. Az. Time Alt. Az.
23 Aug 8.8 00:00:00 71° WNW 23:59:45 71° WNW 01:57:22 10° NNE visible
23 Aug 8.1 17:59:38 10° S 19:30:05 28° E 21:06:23 10° NE visible
23 Aug 8.7 23:12:55 10° SW 00:43:35 54° W 02:46:38 10° NNE visible
24 Aug 8.2 18:45:29 10° S 20:15:59 43° E 22:08:42 10° NE visible
25 Aug 8.6 00:08:52 10° SW 01:34:28 37° W 03:34:54 10° N visible
25 Aug 8.4 19:33:08 10° SSW 21:02:15 60° E 23:04:33 10° NE visible
26 Aug 8.4 01:13:18 10° WSW 02:26:27 22° W 04:20:58 10° N visible
26 Aug 8.6 20:21:46 10° SSW 21:49:50 78° E 23:57:27 10° NNE visible
27 Aug 8.9 21:11:22 10° SSW 22:39:01 84° W 00:48:40 10° NNE visible
28 Aug 8.8 22:02:15 10° SW 23:29:30 66° W 01:38:47 10° NNE visible
29 Aug 8.1 17:40:09 10° S 19:04:14 32° E 20:50:19 10° NE visible
29 Aug 8.7 22:55:12 10° SW 00:20:49 49° W 02:28:00 10° NNE visible
30 Aug 8.3 18:26:29 10° S 19:49:31 48° E 21:50:47 10° NE visible
30 Aug 8.5 23:52:17 10° WSW 01:12:55 33° W 03:16:13 10° N visible
31 Aug 8.5 19:14:15 10° SSW 20:35:56 65° E 22:45:58 10° NE visible
01 Sep 8.3 01:01:05 10° WSW 02:06:37 19° WNW 04:01:39 10° N visible
01 Sep 8.7 20:02:57 10° SSW 21:24:16 83° E 23:38:35 10° NNE visible
